INTELSAT 21 (IS-21)

Last updated on Wed Sep 09 2026 00:02:59 GMT+0000 (Coordinated Universal Time)

1 38749U 12045A 26251.50488888 -.00000306 00000+0 00000+0 0 9996 2 38749 0.0266 250.7572 0002473 303.6984 276.8723 1.00270470 51365
UTC large
Height (km)
Speed (km/s)
/
Latitude / Longitude
Inclination (degrees)
Orbital Period (minutes)
Azimuth
Elevation
Range (km)
Doppler Factor

Next 0 passes for location: London (51.5072 / 0.1276)

No passes found over London.
INTELSAT 21 (IS-21)